User: anonymous   Login
Location: Unspecified
(0.0000°N, 0.0000°E)
Time: 04:50:25
(UTC+02:00)
Language:

NOAA 12 - Orbit

View from above orbital plane
View from above orbital plane
View from above satellite
View from above satellite

Ground track
Ground track

The orbit data is extracted from the following two-line orbital elements,

1 21263U 91032A   17202.54240247 -.00000006 +00000-0 +15664-4 0  9992
2 21263 098.5619 225.7946 0013787 176.7069 183.4204 14.25844390361362
Epoch (UTC): 21 July 2017 13:01:03
Eccentricity: 0.0013787
inclination: 98.5619°
perigee height: 796 km
apogee height: 815 km
right ascension of ascending node: 225.7946°
argument of perigee: 176.7069°
revolutions per day: 14.25844390
mean anomaly at epoch: 183.4204°
orbit number at epoch: 36136

The dashed part of the orbit path shows where the satellite is in the earth's shadow,  

DLR